This is the latest recevied weather packets stored in our database for station/object KG5WBN. If no packets are shown the sender has not sent any weather packets the latest 10 day(s).
| Time | Temp. | Humidity | Pressure | Rain* | Wind** | Luminosity | Snow |
|---|---|---|---|---|---|---|---|
| 1788112035 | 31.11° C | 50% | 1016.3 hPa | 0 mm | - | 307 W/m² | - |
| 1788111732 | 31.11° C | 50% | 1016.3 hPa | 0 mm | - | 242 W/m² | - |
| 1788111431 | 31.67° C | 51% | 1016.6 hPa | 0 mm | - | 178 W/m² | - |
| 1788111126 | 32.22° C | 51% | 1016.3 hPa | 0 mm | - | 262 W/m² | - |
| 1788110823 | 32.22° C | 54% | 1016.6 hPa | 0 mm | - | 335 W/m² | - |
| 1788110519 | 31.67° C | 51% | 1016.6 hPa | 0 mm | - | 317 W/m² | - |
| 1788110214 | 31.67° C | 50% | 1016.6 hPa | 0 mm | - | 286 W/m² | - |
| 1788109909 | 31.67° C | 50% | 1016.3 hPa | 0 mm | - | 311 W/m² | - |
| 1788109604 | 31.67° C | 50% | 1016.3 hPa | 0 mm | - | 312 W/m² | - |
| 1788109303 | 32.22° C | 51% | 1016.6 hPa | 0 mm | - | 283 W/m² | - |
| 1788108998 | 31.67° C | 52% | 1016.3 hPa | 0 mm | - | 339 W/m² | - |
| 1788108693 | 31.67° C | 53% | 1016.6 hPa | 0 mm | - | 262 W/m² | - |
| 1788108390 | 31.67° C | 52% | 1016.6 hPa | 0 mm | - | 332 W/m² | - |
| 1788108085 | 31.67° C | 52% | 1016.6 hPa | 0 mm | - | 318 W/m² | - |
| 1788107782 | 32.22° C | 52% | 1016.3 hPa | 0 mm | - | 338 W/m² | - |
| 1788107481 | 32.22° C | 52% | 1016.6 hPa | 0 mm | - | 322 W/m² | - |
| 1788107177 | 31.67° C | 55% | 1016.6 hPa | 0 mm | - | 337 W/m² | - |
| 1788106873 | 31.67° C | 53% | 1016.9 hPa | 0 mm | - | 179 W/m² | - |
| 1788106573 | 31.67° C | 54% | 1016.6 hPa | 0 mm | - | 303 W/m² | - |
| 1788106268 | 31.67° C | 55% | 1016.6 hPa | 0 mm | - | 180 W/m² | - |
| 1788105964 | 31.11° C | 55% | 1016.9 hPa | 0 mm | - | 343 W/m² | - |
| 1788105658 | 31.11° C | 57% | 1016.6 hPa | 0 mm | - | 116 W/m² | - |
| 1788105354 | 31.67° C | 56% | 1016.6 hPa | 0 mm | - | 346 W/m² | - |
| 1788105050 | 31.11° C | 57% | 1016.6 hPa | 0 mm | - | 181 W/m² | - |
| 1788104745 | 30.56° C | 61% | 1016.6 hPa | 0 mm | - | 196 W/m² | - |
* Rain latest hour (hover to see other rain measurements)
** Current wind speed in m/s (hover to see current wind gust speed)